RH
100 100 100 100 99 98 100 98 96 94 89 88 89 90 84 75 80 89 95 96 94 93 85 76 70 61 51 40 37 34 30 33 38 50 54 35 20 18 16 15 16 15 14 16 20 26 30 33 32 29 30 27 21 19 16 15 13 14 19 22 23 21 17 15 13 13 13 12 11 9 10 11 12 12 10 9 10 10 9 8 7 15 26 35 44 55 69 80
99 98 99 99 99 100 100 94 89 86 77 70 70 69 64 61 67 75 85 85 73 68 59 50 49 47 43 36 32 31 32 39 47 51 37 20 18 18 15 13 15 16 16 21 24 29 38 40 39 37 30 24 20 17 16 14 12 15 20 21 21 19 15 13 11 11 11 11 11 9 10 12 11 12 11 11 12 10 10 9 8 12 21 30 37 56 73 78
97 98 99 99 101 100 99 91 80 72 60 53 52 53 57 57 57 59 67 64 48 45 43 40 42 41 39 35 30 31 39 48 47 38 23 18 20 18 17 16 16 20 22 26 30 34 43 43 44 44 29 21 20 17 17 15 13 14 16 19 20 16 13 12 11 11 10 10 11 9 10 11 11 12 11 12 13 12 11 10 10 11 25 38 39 53 68 73
99 100 100 100 98 95 93 81 64 56 48 45 45 50 53 48 47 50 53 50 40 38 37 38 39 35 35 33 29 33 47 50 39 28 20 19 19 18 20 19 18 22 23 26 30 33 38 40 43 41 22 16 18 15 18 17 14 14 14 17 16 13 12 11 10 10 10 10 10 10 10 10 11 12 12 13 13 14 12 10 11 9 22 35 38 56 66 67
99 99 99 97 92 90 86 66 49 47 44 41 44 48 46 41 44 47 48 46 41 36 35 37 35 31 32 30 29 37 48 47 34 25 21 19 20 20 22 23 24 25 25 26 27 29 34 36 41 35 19 18 19 16 18 15 13 14 14 14 12 12 12 11 10 9 10 10 10 10 10 11 12 12 12 13 14 15 12 10 10 10 24 33 35 52 61 60
95 93 91 89 86 79 66 48 40 43 40 40 45 45 42 40 42 43 45 45 40 36 35 36 31 30 31 31 36 42 48 45 31 22 20 20 20 20 24 28 29 30 31 31 29 32 34 32 34 29 19 20 21 18 18 14 12 16 15 13 12 12 11 10 10 10 10 11 11 10 10 11 13 13 12 12 12 12 11 10 9 9 21 34 44 53 56 56
89 88 86 88 80 55 36 32 36 39 39 42 43 42 40 39 40 40 42 43 40 38 36 34 32 31 34 41 49 54 60 52 31 22 22 23 22 21 25 27 28 31 34 34 33 34 32 25 23 22 21 23 22 19 19 16 14 16 17 15 13 12 11 12 11 11 11 11 11 10 11 12 13 13 12 12 12 11 9 9 9 8 13 26 41 47 47 51
88 88 83 78 62 35 23 28 33 37 40 41 42 41 39 38 38 38 40 41 39 38 37 34 35 35 38 50 60 63 66 53 29 22 25 25 25 23 24 25 26 29 33 34 33 35 29 20 18 21 24 24 22 22 21 22 20 20 23 20 16 14 13 12 12 12 12 10 11 12 12 13 13 12 12 12 11 10 9 8 9 8 10 19 30 35 36 36
85 77 63 51 39 27 24 28 31 36 40 40 41 40 39 37 36 37 40 40 37 37 35 34 37 39 47 61 66 54 41 33 25 23 25 25 25 25 24 24 25 27 31 31 28 31 27 20 21 21 22 22 23 25 24 26 25 23 25 22 20 19 16 15 15 14 13 12 11 12 13 13 13 12 12 12 11 10 10 9 9 8 8 12 20 30 34 31
68 56 44 35 30 27 25 27 32 37 39 39 39 39 38 36 35 36 37 39 38 36 34 35 37 43 57 67 65 48 24 18 24 23 22 24 26 28 26 23 25 28 31 29 24 24 23 21 22 19 21 23 23 26 26 26 26 24 24 23 22 21 19 18 18 17 15 12 11 11 12 12 12 12 13 12 11 10 10 9 9 9 9 8 12 27 37 36
51 43 37 31 27 26 25 27 32 36 38 38 37 38 37 35 34 34 35 37 38 38 39 39 39 46 62 70 66 49 26 18 21 20 20 24 27 28 26 23 25 29 28 26 22 19 20 20 19 21 24 24 25 27 26 24 24 24 24 25 23 21 20 20 19 19 16 12 11 12 12 12 11 12 13 11 11 10 10 10 10 9 9 9 8 20 36 37
42 37 36 31 26 25 26 27 30 35 37 36 36 37 37 34 32 33 33 36 38 39 40 40 41 49 64 74 69 43 21 19 19 18 19 22 24 23 23 23 24 26 24 23 21 18 20 18 18 23 25 24 26 29 27 24 24 25 25 27 26 24 23 22 19 18 18 16 13 13 15 15 13 12 12 11 12 11 11 11 11 11 9 10 8 12 27 32
37 35 36 33 27 25 26 27 29 33 34 34 35 36 35 32 32 32 32 34 36 37 38 39 42 54 63 60 48 29 19 21 19 19 21 22 24 23 22 22 22 23 22 22 21 19 19 18 18 23 23 23 27 28 24 22 24 26 25 27 30 33 34 24 20 22 23 22 17 17 23 22 15 13 12 11 12 11 12 12 11 12 10 10 9 9 14 19
35 34 35 32 28 25 25 27 29 31 31 31 33 36 34 31 31 31 31 31 34 36 36 37 43 56 67 52 30 25 25 23 20 20 22 21 23 22 20 19 19 20 21 21 21 19 19 18 19 22 22 22 25 25 25 26 27 27 32 38 37 41 44 28 23 29 26 24 18 17 25 23 16 14 12 10 11 10 11 12 11 11 11 10 10 9 10 11
34 34 33 31 28 25 24 27 28 28 29 28 30 34 31 29 30 29 30 30 32 35 32 38 48 56 67 56 29 23 25 23 21 20 20 18 18 18 18 18 18 17 18 19 20 19 18 18 21 24 24 23 23 26 32 34 35 38 41 50 48 44 46 33 27 31 27 25 20 20 27 26 19 16 13 11 11 12 12 12 12 11 11 10 10 10 10 10
35 34 32 30 28 25 24 26 27 27 26 25 28 32 30 29 28 26 29 30 29 33 33 40 50 53 63 54 28 21 24 20 18 17 18 17 16 16 16 18 18 16 17 17 19 18 18 21 23 26 24 24 27 31 41 48 58 65 54 51 55 47 46 40 31 27 25 26 24 24 30 30 25 20 18 16 13 13 14 15 14 12 12 11 11 10 10 11
35 34 32 29 28 27 26 26 26 27 25 24 27 30 31 31 29 26 30 32 30 35 39 44 49 51 52 41 25 22 20 17 15 15 16 16 16 17 16 18 18 16 17 17 18 19 20 22 23 26 27 31 34 36 51 62 68 77 67 56 56 48 48 48 39 31 27 28 27 26 29 29 27 24 23 21 17 16 17 20 20 19 20 19 16 12 10 11
36 34 32 28 28 28 28 28 27 27 25 24 26 29 31 32 34 34 34 34 36 44 49 52 55 50 40 30 24 20 16 16 16 15 17 16 17 18 17 18 19 19 21 21 22 21 22 27 29 33 39 40 39 39 52 59 55 61 63 58 55 49 47 48 44 36 30 31 31 30 31 29 26 23 23 22 19 19 20 22 23 23 24 23 20 17 14 12
37 34 31 28 28 28 29 29 28 28 25 24 26 30 29 31 39 39 34 36 43 50 49 50 55 42 27 23 20 15 14 16 16 17 17 16 17 17 17 17 18 21 23 27 31 25 21 30 34 37 44 41 38 39 43 46 47 51 54 53 54 51 47 43 39 34 31 36 36 33 32 29 26 24 22 21 21 22 23 23 22 22 22 22 21 20 19 15
38 34 31 28 27 27 29 29 29 28 27 26 26 33 35 38 50 47 37 40 44 44 41 42 47 38 24 19 16 15 16 17 18 18 16 17 17 18 20 18 21 28 27 28 31 28 29 38 41 42 44 41 39 39 39 44 47 48 51 54 53 53 50 42 38 33 31 39 40 33 33 29 27 27 24 24 24 24 24 24 23 22 22 22 20 19 19 20
38 34 30 28 25 25 27 27 28 27 28 29 29 43 48 40 46 47 42 43 37 34 37 35 36 35 26 18 15 16 19 19 20 19 17 17 17 21 24 22 29 38 33 29 32 36 45 49 47 46 42 42 43 39 42 48 47 48 54 57 55 55 51 42 39 36 31 39 43 33 33 33 29 28 26 25 27 26 25 24 24 23 23 23 21 20 19 20
40 34 29 27 23 23 25 25 27 28 32 32 31 46 49 31 32 35 37 45 38 30 33 32 30 30 22 17 16 16 21 24 23 21 18 18 21 25 26 26 36 42 38 43 49 55 63 58 50 46 42 45 45 41 49 55 51 53 55 58 60 54 52 48 41 36 31 37 40 34 37 38 32 29 27 26 26 25 24 23 23 23 23 22 21 22 20 20
42 35 29 27 23 22 26 25 29 34 38 38 36 41 38 28 30 30 32 45 43 34 32 32 28 24 21 19 17 17 23 26 25 23 18 20 25 25 27 33 42 45 43 51 57 58 66 63 53 49 46 46 46 44 53 58 56 56 55 59 60 49 53 57 46 38 35 34 37 38 42 43 37 34 31 29 27 25 23 22 23 23 24 25 24 25 25 24
45 38 31 27 22 22 28 30 34 39 41 42 39 33 29 29 30 32 41 49 47 39 32 29 23 19 21 20 17 20 24 25 25 23 19 22 26 25 30 37 43 47 46 52 57 52 56 57 49 51 52 48 48 50 54 59 60 57 53 54 54 47 50 52 44 40 38 38 39 38 50 60 52 42 36 31 29 27 26 29 32 33 33 34 34 34 33 31
47 43 34 27 24 23 28 32 35 41 40 35 32 29 29 32 31 33 47 61 65 52 32 21 19 18 19 19 19 21 23 23 23 21 19 21 27 29 33 37 42 52 53 52 53 50 55 58 47 49 57 53 53 54 53 59 65 62 53 47 48 48 47 47 45 47 53 61 51 40 64 83 63 43 40 36 34 34 35 40 42 41 40 39 40 41 39 37
47 46 38 30 25 22 30 37 38 42 38 28 29 29 27 32 34 34 52 76 74 51 29 21 23 22 20 22 21 21 28 31 22 18 19 20 23 27 37 44 46 49 45 43 51 54 55 57 50 49 55 57 61 61 53 55 68 71 55 44 46 47 49 51 50 57 67 68 51 38 60 80 66 50 46 42 43 44 45 48 46 43 43 41 42 42 41 42
46 47 41 33 27 25 37 44 42 44 41 35 35 32 29 33 32 35 62 83 59 31 29 29 26 25 24 23 20 26 37 34 24 21 20 21 23 25 37 49 52 47 40 47 67 67 53 52 56 56 56 61 66 64 57 55 66 70 53 47 52 51 54 56 55 63 64 58 54 46 48 66 73 62 50 49 54 53 51 51 47 44 43 42 43 43 42 43
45 45 43 37 29 29 42 47 43 44 42 38 36 34 32 31 35 51 76 79 48 30 36 34 25 23 24 23 21 28 31 25 29 32 24 20 24 31 40 45 47 46 42 50 66 61 49 48 51 56 63 65 60 57 57 57 63 63 52 53 56 53 56 56 58 65 59 58 73 66 54 68 81 67 52 55 60 58 56 52 48 45 43 43 43 43 42 43
43 42 43 39 29 32 43 42 39 42 38 36 39 39 31 30 49 72 78 63 40 32 34 34 29 24 29 30 24 27 25 21 30 35 26 22 24 31 40 39 38 43 43 48 58 52 46 48 46 54 64 60 53 53 55 57 61 58 53 55 54 53 56 56 62 67 62 68 77 70 65 75 82 74 65 67 67 62 57 52 47 45 44 44 45 44 44 43
41 39 42 40 33 34 38 34 35 41 43 45 46 40 36 47 70 78 67 50 41 37 34 33 29 28 41 46 37 32 29 27 28 26 26 31 32 33 37 37 39 50 51 49 55 49 48 57 52 50 55 51 49 51 51 55 57 56 59 62 59 62 65 65 69 68 71 84 77 64 67 71 77 79 71 68 65 60 56 53 49 46 45 46 46 46 46 45
38 37 40 39 34 35 37 34 32 36 44 49 46 45 55 73 87 81 58 40 44 51 43 37 34 35 45 48 40 34 33 34 30 25 30 39 48 51 51 48 48 60 64 60 59 52 57 71 59 47 49 47 51 56 53 55 56 58 67 70 67 69 72 76 83 80 82 92 77 58 59 65 77 81 69 61 56 53 54 54 52 50 48 48 48 47 47 47
34 33 38 36 30 30 33 33 30 33 44 48 50 64 79 82 76 69 54 40 50 56 42 38 39 38 48 50 40 35 37 38 31 29 38 43 52 59 57 53 52 61 70 71 69 61 62 63 50 50 55 50 61 73 66 59 62 66 72 78 81 84 85 84 87 86 85 87 71 55 59 69 79 77 63 60 58 52 51 49 49 51 51 51 50 49 49 49
31 33 37 32 27 25 27 31 33 37 45 49 61 82 93 83 63 55 55 50 53 52 38 40 41 41 57 60 47 38 39 41 35 35 43 46 53 56 54 55 57 62 68 72 73 71 73 65 52 61 65 52 62 79 75 68 72 75 73 82 92 95 97 94 88 86 87 84 68 59 69 77 83 78 64 62 60 51 49 47 46 50 52 53 53 52 52 52
30 35 37 32 28 29 32 35 37 42 46 55 78 91 82 67 51 49 57 50 44 43 40 43 44 47 57 55 46 44 47 50 43 40 50 61 67 62 56 57 56 61 72 77 74 71 80 81 66 65 65 55 58 65 65 68 79 78 67 76 92 93 96 97 94 96 95 88 75 68 73 75 81 82 66 58 56 48 47 46 45 50 52 53 55 54 55 55
29 34 39 35 30 33 39 39 40 42 46 63 91 93 67 49 45 50 58 52 43 42 44 45 47 55 61 55 53 50 47 50 48 45 54 67 72 64 56 54 50 58 72 76 72 67 76 81 66 56 57 59 62 60 58 66 78 78 68 76 86 85 88 94 96 95 92 95 92 80 74 70 74 77 64 54 53 48 47 48 49 54 55 56 60 59 58 58
28 31 40 39 35 38 39 42 45 45 53 75 92 83 55 38 43 50 52 48 41 39 50 55 52 60 66 63 64 57 47 51 53 51 55 62 67 60 52 50 48 53 59 63 70 71 74 78 64 57 64 64 62 63 61 60 69 77 78 76 68 65 79 94 95 89 89 97 91 76 75 74 73 75 67 58 56 53 52 52 54 58 59 62 64 63 62 61
31 38 50 48 42 39 37 44 47 48 66 86 88 77 53 33 36 44 41 38 36 39 56 63 54 55 62 65 68 62 55 61 59 55 59 66 68 59 54 56 51 48 48 53 64 66 68 76 68 62 75 70 59 64 64 56 64 81 83 72 63 64 77 90 94 91 94 97 82 68 75 81 81 81 76 68 64 61 57 56 60 62 64 67 67 65 65 62
45 58 64 50 40 38 39 43 44 52 75 88 88 80 57 36 33 37 35 31 36 48 59 61 53 50 58 65 67 62 61 65 63 59 61 63 63 55 54 60 54 50 51 50 57 61 64 80 80 69 74 76 72 80 78 61 61 72 70 65 70 77 82 88 94 92 93 97 88 73 69 78 90 91 87 81 72 64 60 61 66 69 70 71 69 66 65 64
62 78 73 48 37 38 36 36 47 67 81 87 87 67 41 32 29 31 37 31 36 51 51 49 52 54 59 64 64 62 60 60 62 65 61 58 62 58 51 54 54 55 55 48 52 61 62 74 84 73 70 80 89 96 92 76 68 71 71 72 76 83 85 86 92 96 95 97 95 83 73 80 96 99 92 83 69 62 65 68 72 74 74 73 70 68 67 66
67 77 72 44 32 36 32 33 53 76 81 81 77 46 23 28 23 23 36 32 34 47 45 44 50 53 58 62 60 59 59 60 62 65 60 55 61 62 54 52 50 48 50 46 48 62 66 69 78 75 70 82 94 96 90 84 81 83 86 85 82 85 85 81 85 94 98 99 98 95 88 81 85 92 86 74 64 62 65 71 78 78 74 73 70 69 68 65
72 75 71 42 27 32 33 39 60 78 77 70 58 32 21 27 23 24 31 28 34 43 43 47 51 51 59 63 58 57 64 68 65 62 61 59 62 63 56 54 49 44 52 58 54 60 69 68 73 78 80 89 94 86 80 79 80 86 91 89 87 88 89 90 89 86 89 94 94 99 96 80 76 85 78 64 61 62 63 71 81 81 76 75 71 67 66 65
76 75 66 40 28 32 41 59 73 74 64 51 39 30 31 31 28 30 27 24 32 36 37 44 48 52 58 58 56 59 64 70 69 62 60 61 62 56 50 54 53 44 52 62 54 56 68 71 73 81 89 95 92 81 77 76 77 87 90 86 89 92 92 98 96 87 89 92 90 96 98 83 80 82 69 57 60 63 64 70 79 83 78 74 70 66 64 65
73 70 55 37 34 37 51 72 75 65 55 44 32 31 36 35 34 34 29 28 34 37 37 39 43 48 47 47 55 59 59 63 66 63 61 62 60 50 49 56 53 47 55 61 54 55 68 72 72 80 91 95 90 85 85 81 81 92 93 87 90 91 88 93 94 91 95 95 91 98 97 79 70 66 57 55 61 64 65 69 76 83 78 70 69 67 65 66
78 79 65 47 36 36 51 60 57 57 57 48 40 37 38 40 40 38 31 28 33 39 38 36 39 41 41 47 56 57 58 60 60 61 62 63 58 47 46 51 48 45 51 55 52 54 64 70 74 85 94 95 96 96 92 89 91 99 98 93 90 89 90 93 91 94 99 93 90 99 96 74 58 54 56 60 65 67 67 69 74 78 75 71 69 68 67 65
85 85 77 60 41 39 51 54 51 56 53 49 50 46 41 44 44 40 33 29 32 36 36 37 38 37 42 53 57 56 59 59 61 65 62 62 62 48 39 45 49 44 45 54 59 59 66 73 76 86 96 97 98 93 86 89 98 100 99 96 90 90 94 92 90 99 100 90 90 98 92 74 59 58 64 68 69 73 74 73 75 75 73 72 70 67 67 65
81 80 79 73 62 55 56 59 58 54 49 53 55 46 43 47 44 39 37 35 35 34 33 35 37 39 49 58 58 57 58 55 59 65 62 63 67 53 40 45 49 45 49 60 65 64 69 75 76 84 92 90 85 80 80 90 98 95 92 91 88 90 94 91 92 98 96 92 95 92 86 83 78 73 75 75 74 80 83 80 78 76 74 72 68 66 67 66
78 74 68 64 69 71 66 67 67 59 56 59 54 46 47 48 44 43 41 38 38 39 38 39 41 44 51 58 59 60 64 64 64 64 61 63 67 60 52 50 47 47 51 53 59 64 66 70 76 80 80 77 76 80 83 88 93 90 85 83 85 91 97 96 93 90 89 98 97 82 81 93 90 80 79 79 79 84 88 86 82 79 75 70 68 68 69 69
74 71 62 53 65 76 70 66 69 66 62 56 48 47 49 49 50 52 50 47 45 44 46 54 59 56 52 54 58 62 69 74 74 70 63 62 65 64 62 60 54 55 51 45 56 70 66 68 77 73 68 74 83 87 84 83 88 90 85 80 81 89 96 96 92 89 91 100 94 81 87 96 87 79 79 78 81 88 89 86 81 77 74 71 70 72 73 74
77 78 75 64 65 73 68 65 68 70 69 63 55 50 48 51 54 52 50 51 52 51 50 54 62 60 54 56 59 64 73 76 75 75 68 64 64 63 64 66 63 61 52 41 54 68 65 74 84 70 59 71 86 87 80 81 89 87 84 85 83 84 89 91 94 95 94 95 91 87 94 91 77 75 78 76 79 86 86 83 81 77 75 74 75 77 79 82
79 79 84 80 78 80 76 72 70 69 70 69 62 51 48 54 56 50 45 42 45 55 52 48 57 59 55 56 56 59 72 74 70 70 66 64 68 68 67 62 57 61 57 46 51 55 55 73 84 66 56 71 87 89 80 79 85 79 75 82 83 78 82 88 91 93 94 96 93 89 91 87 72 69 76 77 78 84 87 85 85 81 77 78 81 83 86 88
71 67 74 84 91 89 79 73 73 71 67 66 63 53 47 51 51 47 48 46 46 52 48 45 58 63 58 59 58 62 76 76 67 65 62 59 63 66 64 57 50 54 58 54 52 48 51 71 78 63 59 72 84 90 89 84 83 80 74 75 77 74 75 80 81 84 92 97 92 88 88 86 76 70 76 80 80 86 89 87 88 84 80 84 89 90 91 91
76 72 72 80 91 90 80 75 77 74 67 63 62 51 41 45 49 49 54 56 52 51 50 51 55 58 61 65 61 62 71 68 58 57 55 51 52 53 52 52 47 47 54 59 57 55 57 62 66 65 64 71 81 90 91 84 82 89 82 69 69 74 76 79 80 82 89 90 87 90 89 82 76 76 83 87 86 89 91 91 91 89 86 88 92 92 92 90
Wind_Speed
18 17 17 17 16 15 14 13 12 11 11 12 12 12 13 13 13 13 13 13 14 14 13 14 13 12 11 10 10 10 10 10 10 9 5 4 4 5 6 6 6 6 3 4 5 6 9 9 9 10 5 2 1 2 2 2 2 1 1 2 3 3 3 3 4 4 5 8 7 8 8 8 8 8 8 8 8 9 10 14 15 16 15 13 11 21 27 29
18 18 17 17 16 16 15 13 11 11 11 11 12 13 13 14 14 13 14 14 14 13 13 13 13 12 10 9 9 10 12 12 9 7 4 4 6 6 6 6 5 4 2 4 7 6 6 6 8 10 2 2 1 1 1 2 1 2 2 2 3 4 4 4 6 6 8 9 8 9 7 7 7 6 6 7 8 8 10 11 12 16 17 18 14 10 23 30
18 18 17 17 17 16 15 13 11 11 10 10 11 13 14 15 15 16 15 14 14 12 13 13 12 12 9 8 7 8 12 10 4 3 4 7 7 7 7 5 3 3 4 5 8 7 6 9 11 8 1 2 3 2 1 2 1 2 3 3 4 5 6 6 7 7 8 9 8 9 6 6 8 6 4 5 8 5 8 7 10 11 9 10 12 11 4 13
19 19 18 17 17 16 15 13 11 10 10 10 12 14 15 16 17 17 15 14 12 11 12 12 12 11 9 7 6 8 9 5 2 3 4 6 7 7 7 5 3 3 6 7 9 10 10 12 10 5 1 1 3 1 1 3 2 2 4 4 6 6 6 7 9 9 9 9 7 6 5 6 6 5 4 6 7 3 5 5 7 5 4 6 5 5 11 7
20 19 18 17 17 16 15 13 10 10 10 10 12 13 15 17 17 16 15 13 11 11 11 11 12 10 9 7 4 7 6 4 2 5 2 5 5 5 5 5 5 6 9 10 11 11 11 10 5 3 1 1 2 2 2 4 3 3 4 7 9 7 6 9 10 10 9 6 6 5 4 3 4 3 3 6 5 2 1 2 5 5 2 5 5 2 1 5
20 19 18 17 17 15 14 13 11 11 11 11 12 13 15 17 17 15 14 13 11 10 10 10 11 10 9 5 3 5 2 2 4 5 1 3 4 4 6 7 8 9 11 12 11 9 8 5 1 1 1 2 2 1 4 5 3 4 5 5 8 7 7 7 7 8 6 5 7 5 1 1 3 4 3 3 7 7 3 3 3 5 6 1 6 3 5 6
20 19 18 17 17 15 14 13 11 11 11 12 12 14 16 17 16 14 13 12 10 10 10 10 10 10 9 4 1 3 3 2 7 6 2 2 5 4 4 7 9 10 11 11 8 5 5 4 2 0 1 3 2 2 4 7 2 2 4 6 7 6 6 6 7 7 6 7 8 4 1 2 5 5 4 4 7 10 8 5 4 3 7 6 2 5 4 6
21 20 19 18 16 15 14 13 12 12 12 12 13 14 16 16 15 13 12 11 9 10 9 9 10 10 9 4 1 3 1 4 8 7 3 2 3 3 3 6 8 10 11 10 7 4 5 5 4 3 3 2 3 4 6 8 5 3 5 7 7 6 6 6 6 6 6 7 6 6 6 4 6 5 5 7 7 9 13 10 7 3 4 7 6 1 2 2
21 20 19 18 16 15 14 13 12 12 13 13 14 15 16 15 14 13 11 10 9 9 9 10 10 9 8 4 1 3 2 5 9 6 3 4 2 1 4 5 6 10 10 12 10 5 3 4 4 2 1 1 4 5 7 6 3 4 6 8 8 8 6 6 5 7 7 5 4 7 9 6 6 5 5 8 7 6 10 12 10 7 4 3 8 7 5 4
22 20 19 18 17 16 14 13 13 13 14 14 15 16 15 14 13 11 10 10 9 8 9 9 10 9 6 3 4 3 4 3 8 8 5 5 5 5 7 6 8 10 8 12 9 1 1 3 4 2 2 1 4 5 6 3 3 6 8 8 8 8 7 7 7 8 8 5 4 6 11 9 4 4 5 7 6 3 3 8 11 10 11 5 6 7 7 7
23 20 19 18 17 16 14 13 13 14 14 15 16 16 15 13 12 11 10 9 9 9 10 10 10 9 4 2 4 0 5 3 6 7 5 6 8 9 10 8 10 11 8 10 7 3 0 0 2 2 2 1 3 5 5 3 4 7 8 9 9 9 9 8 7 8 6 5 7 8 13 14 4 4 6 7 7 4 4 5 7 9 13 12 2 8 7 6
24 20 19 18 17 16 15 13 14 15 15 16 16 16 14 12 11 10 10 8 9 10 10 11 10 8 5 2 3 4 6 3 5 6 6 8 9 10 11 11 12 12 10 6 4 4 4 3 1 1 1 1 2 3 5 5 6 7 7 6 9 10 8 8 7 6 4 3 8 7 10 13 6 6 8 8 7 6 6 5 6 7 8 14 11 3 7 7
24 21 19 18 16 16 15 14 15 16 16 17 17 16 14 12 10 10 9 8 9 10 11 11 9 6 5 2 5 8 8 5 5 8 10 11 12 13 14 15 14 15 14 11 10 7 5 7 3 2 3 1 1 3 4 6 5 7 6 3 6 7 6 8 6 5 5 4 7 4 5 8 5 8 10 7 7 6 7 7 6 7 6 8 12 9 5 7
25 21 18 18 16 16 15 15 16 17 17 18 17 15 13 11 10 9 9 9 9 10 11 11 9 4 2 4 9 10 10 7 5 8 13 13 14 15 14 13 11 12 14 16 18 13 8 10 5 1 2 2 3 3 4 5 3 4 5 3 3 3 5 7 5 6 6 6 6 2 4 7 5 8 10 7 7 7 7 8 7 6 6 6 8 9 10 8
26 21 18 17 16 16 16 16 17 18 18 18 17 15 12 10 10 10 9 9 10 10 10 9 7 3 1 5 8 7 7 8 6 9 11 10 8 9 10 11 11 11 10 13 17 16 13 9 2 1 3 2 2 3 3 3 3 2 2 4 2 1 5 7 7 6 6 7 5 3 4 6 6 8 8 7 6 6 7 8 7 7 7 7 7 8 10 10
27 22 17 16 16 16 16 16 18 19 19 18 17 14 12 11 11 9 8 10 10 10 8 6 5 3 1 5 7 6 5 7 7 7 6 6 6 9 13 14 14 14 12 11 13 12 11 6 1 2 2 2 2 1 3 4 4 2 1 3 4 3 4 6 6 6 7 7 6 5 5 4 5 6 6 6 5 5 6 6 6 7 7 7 7 7 9 9
28 22 17 16 16 16 16 17 19 20 19 18 16 15 13 12 12 11 9 9 9 8 6 3 4 3 2 6 7 5 4 5 6 7 5 6 8 11 13 11 11 12 10 13 13 6 5 3 1 1 1 2 1 2 4 4 4 3 2 2 4 5 5 5 6 7 6 5 6 7 6 6 7 7 7 6 5 5 6 6 6 6 6 6 6 7 8 9
29 23 17 15 16 16 17 17 18 19 18 17 17 16 13 11 10 10 9 7 7 6 3 2 2 3 3 6 6 4 4 5 8 10 9 9 10 10 11 8 8 9 6 7 7 2 3 1 0 1 3 4 2 3 1 3 3 3 4 3 4 5 4 5 6 6 6 5 7 9 8 8 9 8 8 7 5 5 6 7 6 5 6 6 6 7 7 8
29 23 17 15 16 17 17 18 18 18 18 15 15 14 10 9 6 2 4 4 3 2 2 2 1 1 4 6 7 7 7 8 9 10 9 8 9 7 9 8 5 5 3 3 3 1 3 0 2 1 2 4 2 2 2 2 2 3 4 4 5 6 5 7 7 6 6 6 7 7 7 9 10 10 9 9 7 5 6 7 7 6 5 6 6 6 7 9
30 23 17 16 17 17 18 18 17 18 18 16 16 12 6 7 5 3 4 3 2 5 5 5 4 3 6 5 6 9 9 7 4 4 3 5 5 5 6 5 3 2 1 2 4 1 2 2 1 3 4 4 4 4 2 0 2 4 5 5 6 6 5 7 8 9 6 4 5 6 6 8 9 10 9 9 8 7 8 8 9 9 7 7 7 7 8 8
30 24 17 16 17 18 18 18 18 18 17 17 15 7 1 2 2 2 5 4 7 9 8 10 9 8 11 11 10 7 3 4 3 2 2 3 2 4 4 3 5 4 4 4 4 3 4 4 2 5 5 5 5 5 2 0 3 4 4 5 5 5 6 7 8 10 7 2 5 6 5 7 8 9 9 9 8 8 9 9 10 11 8 6 7 8 9 7
31 25 18 16 17 18 18 18 17 16 15 14 10 3 2 1 1 2 3 3 8 7 8 11 10 9 12 12 9 3 4 3 4 2 2 3 3 3 2 3 5 2 5 3 3 5 4 1 4 6 4 2 4 4 1 0 3 3 3 4 4 4 5 6 6 8 7 2 5 6 5 6 7 7 8 7 6 7 8 9 10 10 9 7 7 7 8 8
30 26 20 16 18 17 18 17 13 14 16 12 7 3 3 3 3 4 2 1 6 5 5 6 5 6 6 4 1 3 4 1 2 4 4 2 3 2 2 3 4 3 4 3 3 3 3 4 6 5 4 4 4 5 3 3 3 3 4 3 4 5 4 5 4 7 7 3 4 5 4 5 6 5 6 5 5 5 6 6 6 6 6 8 7 6 7 8
29 28 21 17 18 17 18 15 8 14 17 8 6 5 5 5 5 6 2 1 4 5 5 6 4 4 3 3 2 1 1 2 3 4 5 2 2 1 2 1 3 3 4 2 3 4 2 7 4 4 6 4 4 5 6 5 4 3 4 4 4 5 6 6 7 8 7 4 4 4 5 4 4 5 6 6 6 6 7 8 10 10 9 9 10 12 12 10
29 29 23 19 18 17 17 9 7 17 13 4 5 7 6 7 7 6 2 1 3 4 4 4 2 1 2 4 4 3 2 2 5 5 4 4 3 0 1 0 1 2 6 4 2 2 4 6 2 5 5 5 5 4 4 4 3 4 4 5 6 7 8 8 9 8 5 4 4 5 5 4 4 5 5 6 6 7 9 11 11 11 12 13 12 13 14 14
28 28 25 20 17 19 14 3 9 18 7 5 10 8 8 8 7 4 2 3 2 3 1 1 1 1 3 2 2 2 5 3 7 5 4 4 3 2 1 2 1 2 6 3 1 1 3 3 4 4 4 6 5 3 3 3 4 4 4 5 7 7 7 7 8 6 2 3 5 2 1 4 4 5 5 5 6 8 10 10 11 11 12 12 10 11 12 13
28 27 26 20 16 18 10 3 12 14 2 4 12 11 10 8 5 2 3 4 2 2 1 2 1 1 4 2 2 4 3 5 5 3 4 5 2 2 2 2 2 2 5 2 3 2 2 3 5 6 5 5 4 3 4 3 3 4 6 6 6 6 7 7 6 3 2 4 5 2 2 2 4 4 4 7 8 11 12 12 13 13 14 14 12 12 12 13
28 28 26 20 16 14 8 7 12 9 3 9 15 15 12 7 3 2 5 3 2 2 1 2 1 1 4 2 2 2 3 3 1 4 6 6 4 4 3 2 1 2 4 5 4 5 1 3 3 5 5 3 2 4 5 4 2 5 8 6 6 6 7 7 5 3 3 2 4 4 1 1 4 3 5 8 9 12 12 11 13 14 14 15 14 14 14 14
28 28 26 21 16 11 7 8 8 6 8 13 17 16 9 3 2 4 4 1 2 1 1 1 1 3 4 3 3 2 1 2 0 4 4 2 2 3 2 2 2 0 3 7 4 4 1 0 2 5 4 2 3 5 4 4 2 6 7 6 7 7 5 4 3 2 1 1 3 4 2 2 3 3 5 5 7 10 10 9 11 12 12 13 13 15 15 14
29 28 26 22 15 8 8 10 5 5 10 15 18 14 4 1 4 5 3 0 1 2 2 1 2 4 5 5 4 5 5 4 3 3 2 2 4 5 1 1 4 3 4 4 4 4 3 3 0 3 1 2 3 4 2 3 3 5 4 5 8 6 3 2 0 2 2 2 3 1 3 2 0 2 4 4 5 7 8 9 12 15 15 14 13 13 14 14
29 28 24 21 14 7 7 7 4 6 10 14 17 11 2 3 4 5 1 1 1 3 3 3 3 4 6 4 3 5 5 5 5 6 4 2 6 7 4 4 4 3 5 5 5 6 5 4 3 1 1 2 3 3 3 4 5 6 4 4 5 4 4 4 3 3 3 2 4 2 5 2 2 1 3 4 4 5 7 9 14 17 17 16 14 14 14 13
29 26 21 17 12 10 8 4 5 7 9 13 14 6 4 4 3 2 1 2 1 2 3 3 4 4 4 3 5 5 4 5 6 6 4 3 4 4 3 2 1 3 5 4 4 6 5 3 1 1 3 4 4 4 5 6 6 6 5 4 4 3 4 4 3 3 0 4 3 5 8 3 2 1 3 4 4 6 7 8 11 14 16 16 15 15 13 12
28 24 18 13 9 10 9 5 6 7 9 12 8 4 5 4 2 0 1 2 1 3 2 2 5 5 3 4 6 7 5 5 7 7 3 3 3 4 4 3 3 4 1 2 2 5 4 5 4 3 4 3 4 4 4 5 5 6 5 3 3 2 2 3 3 2 2 4 5 7 5 0 1 1 3 3 4 5 6 7 9 12 14 14 14 14 14 13
27 21 15 11 10 10 8 6 5 6 10 10 4 4 6 4 0 1 1 2 3 2 2 2 5 5 5 5 3 5 4 4 8 7 4 3 3 3 3 3 3 4 2 0 2 2 1 4 4 2 2 2 3 3 1 2 3 3 2 2 3 2 1 1 2 2 3 4 6 7 2 0 2 1 4 1 3 5 7 9 11 12 11 11 13 13 14 14
25 19 12 10 10 9 6 5 4 5 7 6 5 4 5 2 2 1 1 3 2 2 4 4 4 4 5 3 1 3 2 2 7 7 3 3 3 1 0 2 3 2 3 2 1 1 1 3 4 0 1 1 4 3 2 3 3 2 1 4 1 2 3 2 2 3 3 3 4 4 1 2 2 3 2 3 7 9 11 14 15 14 13 12 12 13 14 14
24 18 10 7 9 7 3 2 3 5 4 4 6 3 2 1 2 1 2 2 0 2 4 5 5 4 4 4 3 6 4 2 5 6 3 2 3 2 1 2 3 2 3 2 1 1 1 4 4 1 4 4 4 3 4 4 2 2 3 1 3 3 4 1 3 3 1 1 2 2 3 4 1 1 3 8 10 11 14 16 16 15 15 14 12 12 13 14
24 16 8 8 7 3 3 3 4 5 1 5 4 0 1 2 2 3 2 0 1 1 3 3 2 2 2 3 3 5 5 4 4 4 2 2 3 3 2 3 3 2 2 2 1 1 1 4 5 1 3 2 3 5 6 5 1 2 1 3 4 1 2 2 1 2 2 1 3 3 4 4 1 1 5 9 11 12 15 17 16 16 15 14 13 13 14 15
20 12 7 8 3 4 5 5 7 6 3 5 2 2 1 1 1 2 2 1 0 2 4 2 1 1 1 1 2 4 4 3 3 3 2 2 2 1 1 2 3 4 3 2 1 1 2 2 6 2 3 1 2 4 4 5 4 4 1 3 2 2 1 1 1 1 2 2 3 2 3 2 1 2 5 7 9 13 16 17 18 18 17 15 15 15 16 15
11 6 4 3 1 4 6 8 8 4 5 3 0 2 1 1 1 3 2 1 1 3 3 2 2 1 1 3 1 3 3 2 2 3 1 1 1 2 1 1 3 6 5 4 3 1 1 1 4 3 2 2 2 2 1 2 3 3 3 4 3 2 2 0 0 1 0 3 3 2 3 2 3 3 3 5 9 13 16 17 18 19 18 16 15 15 15 14
3 2 2 1 4 6 10 11 5 4 3 1 2 1 1 0 1 4 3 0 1 2 1 2 2 1 1 1 1 2 1 1 1 1 1 1 2 3 2 1 1 5 4 5 3 0 3 1 3 4 1 2 2 2 1 2 2 2 4 4 3 2 1 0 1 1 2 1 2 2 3 3 3 3 3 4 10 14 16 16 16 17 17 16 16 15 14 13
2 3 2 2 5 7 8 6 2 2 2 1 2 1 1 1 1 3 3 2 1 2 3 3 2 2 2 1 1 1 0 1 1 1 1 2 2 2 2 1 2 3 3 5 2 0 1 0 2 3 3 2 2 3 4 4 2 2 2 1 1 1 2 2 1 2 1 1 2 2 3 5 4 3 2 6 11 13 16 16 15 16 18 17 15 15 14 13
2 1 3 0 2 5 5 3 2 1 2 1 2 2 1 1 1 3 3 4 3 1 2 1 1 2 2 2 1 1 1 0 1 0 1 2 2 2 2 2 3 0 3 1 2 2 2 2 0 2 2 3 4 5 7 7 6 5 2 0 1 2 3 4 2 3 2 1 3 1 2 5 2 2 3 10 13 13 15 14 14 15 16 16 16 16 15 13
2 3 5 4 3 6 5 3 3 3 1 3 1 0 0 1 1 2 2 3 2 1 2 1 1 2 1 2 1 2 1 1 1 1 1 2 3 4 3 4 3 2 3 1 2 2 1 2 1 2 1 4 4 4 3 4 5 5 2 1 1 1 1 4 4 1 1 2 1 0 3 4 1 3 7 13 15 16 15 14 15 14 13 15 16 16 15 14
1 4 5 5 4 6 4 1 1 2 3 3 2 2 2 1 1 1 1 2 1 1 2 1 0 1 1 1 3 2 2 1 1 3 2 1 4 5 4 7 5 2 0 1 2 1 1 0 1 2 2 0 2 0 2 1 2 2 1 2 1 1 3 1 1 1 1 1 1 1 4 4 4 7 11 14 17 19 18 17 15 13 13 14 14 14 13 13
2 2 4 3 3 4 1 3 4 2 3 2 3 2 3 2 0 0 1 2 1 2 1 2 1 0 1 2 3 0 2 3 1 3 2 2 4 4 4 7 5 0 2 3 2 1 1 1 1 1 3 3 2 3 3 0 1 1 1 2 2 1 2 1 0 1 2 1 2 2 4 7 10 12 14 15 17 20 21 20 18 15 14 14 13 13 13 12
2 1 3 5 3 3 1 1 4 3 1 2 2 2 2 1 2 1 0 1 1 1 1 2 1 2 3 3 3 2 1 1 0 1 2 3 3 3 3 5 4 1 4 6 1 3 2 1 2 4 3 4 5 6 2 4 3 1 1 2 3 2 0 2 1 1 3 3 3 3 4 9 14 15 15 16 18 19 20 19 20 18 16 16 15 14 14 14
2 1 1 2 3 3 4 4 4 3 1 2 1 2 1 1 2 1 1 1 1 2 1 1 2 3 3 2 3 1 2 2 2 1 2 3 3 4 6 5 2 3 5 4 1 4 3 2 3 5 6 7 7 5 1 6 4 3 3 2 4 3 1 3 2 3 3 3 3 4 7 11 14 14 15 17 18 17 18 18 18 18 17 16 15 16 17 17
1 1 1 2 1 1 2 3 4 4 3 3 1 1 1 2 2 1 2 3 2 3 2 2 4 2 1 2 3 1 2 3 3 2 2 3 3 4 6 4 3 3 2 2 1 3 4 2 4 4 5 5 2 4 7 7 3 4 5 3 4 3 4 4 5 5 4 2 5 8 11 12 12 13 14 17 17 16 17 17 15 16 17 16 17 18 19 19
1 1 2 1 1 2 4 5 4 4 4 3 1 0 1 1 1 2 2 2 4 3 1 1 4 3 1 2 4 2 2 0 2 3 2 3 3 2 3 4 4 3 2 2 3 2 4 3 5 4 5 3 5 8 8 8 4 3 4 4 5 4 4 6 7 6 6 6 7 9 11 11 10 11 13 16 16 14 14 14 15 17 17 17 19 20 20 20
1 1 2 3 3 3 4 4 3 4 4 1 2 1 1 3 2 3 1 1 1 4 1 1 4 5 2 2 3 1 5 6 4 4 4 2 3 2 2 2 3 4 3 1 3 1 3 3 4 1 4 3 6 7 6 7 6 4 2 4 3 2 4 4 4 4 3 4 7 7 8 9 8 10 14 14 15 15 14 16 18 18 17 18 21 21 20 19
1 3 1 1 2 3 2 4 3 3 3 1 1 1 0 2 4 3 2 2 5 4 3 2 4 3 3 3 2 4 6 7 7 8 7 5 4 4 3 3 3 3 4 2 2 1 2 2 3 3 3 4 5 9 6 3 2 3 4 6 7 5 4 4 4 3 2 3 7 8 8 9 9 12 14 14 15 17 17 17 17 16 16 19 20 20 20 20
4 2 0 3 0 2 3 4 4 3 0 2 1 2 2 3 5 3 1 4 3 5 5 4 4 2 2 4 6 7 8 8 8 9 7 7 7 6 5 5 4 4 4 2 2 1 2 0 3 1 1 5 2 8 7 1 2 2 2 5 6 5 4 4 5 3 3 2 5 8 8 9 11 12 14 16 17 16 16 15 14 14 17 19 19 19 20 21
Wind_Direction
348 347 345 343 341 340 337 335 333 330 329 328 329 329 329 333 333 331 330 329 329 328 331 335 339 348 356 6 2 352 343 329 326 326 321 317 321 328 340 338 331 332 329 308 312 330 330 323 328 324 304 297 228 227 266 210 166 96 107 240 252 229 219 229 243 255 275 284 308 325 345 355 334 340 329 327 15 13 19 27 15 21 22 12 61 113 123 126
348 346 344 342 340 339 338 338 336 330 329 330 331 332 334 339 339 336 332 330 332 333 339 344 350 358 6 12 4 356 343 332 332 328 325 357 5 7 7 4 358 356 342 320 331 351 342 308 328 340 320 172 278 234 241 247 164 147 177 251 238 222 231 243 254 258 274 283 308 317 333 349 322 327 342 337 346 11 40 25 17 27 10 357 15 94 128 133
347 345 343 341 341 341 339 336 334 331 333 334 334 336 339 343 344 342 339 337 340 344 347 350 359 5 9 10 3 356 342 340 356 327 350 24 26 27 34 29 22 13 344 336 333 328 316 293 305 321 266 187 268 228 216 272 275 195 185 264 246 235 257 264 263 257 267 285 303 304 324 340 316 324 353 338 337 36 71 37 28 29 6 338 340 351 32 136
346 345 343 343 342 340 339 337 337 336 337 337 338 341 344 347 348 348 347 346 349 352 350 356 6 8 9 2 357 352 344 360 359 295 356 29 30 35 47 44 28 354 328 327 320 315 311 294 297 308 240 245 282 204 195 232 249 229 169 220 241 233 253 260 260 262 271 287 292 296 344 338 319 336 354 355 347 33 91 78 71 49 358 325 328 349 316 292
347 345 345 343 341 340 342 344 344 342 339 341 343 345 348 350 351 352 353 352 353 352 352 1 8 10 7 355 350 344 353 42 298 273 338 27 30 22 17 10 344 328 320 320 313 317 318 296 303 336 303 304 315 3 270 236 200 252 223 224 240 235 247 258 257 264 273 288 298 316 351 311 323 345 334 358 335 263 153 104 113 117 94 327 311 164 263 310
348 346 344 342 343 345 345 346 347 344 342 346 346 346 350 352 353 355 354 353 352 351 355 2 6 10 0 344 343 343 22 92 259 256 283 42 42 12 4 350 324 322 316 311 311 322 321 298 40 15 332 20 303 279 274 274 197 236 269 252 251 241 243 260 260 268 281 297 297 298 265 239 335 325 271 317 297 266 230 207 174 136 144 184 316 350 66 27
348 346 345 345 347 349 348 348 348 345 344 348 347 348 351 353 355 354 352 353 351 351 355 358 2 7 0 349 341 14 92 225 244 233 248 96 68 32 7 338 322 319 310 307 317 332 318 316 34 91 50 39 320 302 301 311 295 220 299 297 284 260 250 267 270 275 283 289 284 276 337 319 305 296 256 256 277 289 289 258 246 190 146 127 19 347 44 65
349 348 347 347 348 350 353 351 347 346 344 346 346 348 351 353 353 351 350 349 346 349 350 353 359 4 3 359 351 40 59 244 222 214 250 172 89 47 334 318 319 313 307 305 306 297 309 338 360 5 39 29 348 347 337 337 355 15 325 312 319 296 277 285 281 294 297 292 302 320 327 291 263 275 274 257 249 282 296 295 293 269 158 131 142 204 350 82
351 350 349 348 349 353 356 351 346 345 343 344 344 346 349 351 351 349 348 342 342 346 341 347 356 3 5 353 57 46 303 222 196 211 274 255 217 44 298 303 301 302 307 298 288 267 292 360 351 338 83 348 4 351 344 355 340 329 315 315 322 305 303 317 315 318 309 297 323 323 307 275 249 265 275 268 249 256 291 303 310 309 289 171 160 177 188 210
352 352 351 350 352 355 355 351 345 343 343 342 341 343 346 348 349 347 344 339 339 337 336 348 356 2 7 3 55 41 300 222 194 218 262 271 244 230 255 284 286 282 284 284 294 325 61 20 325 289 133 13 357 332 333 351 283 293 308 315 310 304 317 328 328 319 313 310 307 305 295 283 246 247 276 282 270 237 280 303 310 318 306 284 157 175 191 193
354 354 355 353 354 354 354 350 344 344 343 340 340 341 343 345 346 344 340 336 336 337 342 350 356 2 7 46 83 284 290 274 205 218 252 254 241 247 257 276 279 266 256 270 295 352 250 7 324 333 86 345 323 313 300 275 289 302 313 321 316 326 333 323 321 312 329 336 307 306 293 289 262 217 256 264 269 251 210 248 282 303 303 300 243 169 188 202
356 356 356 354 352 352 355 350 343 343 342 341 341 340 341 341 340 337 334 334 336 339 346 353 360 1 356 43 161 246 300 302 222 225 250 236 234 263 274 275 265 253 254 254 268 302 274 255 44 54 200 327 326 311 294 292 315 312 314 326 323 343 339 314 312 309 352 333 291 309 292 286 271 241 249 241 254 267 254 241 248 261 278 294 296 219 175 197
357 356 355 353 351 352 354 349 343 342 342 343 342 343 340 335 334 330 327 331 333 336 344 351 347 346 5 350 246 270 305 297 234 227 240 237 240 257 265 268 259 247 251 251 257 275 267 249 227 196 211 113 300 263 294 313 322 309 318 342 330 348 328 301 306 315 341 291 274 306 284 288 288 260 258 237 230 247 270 269 255 255 250 271 288 289 244 202
357 355 353 353 351 349 350 350 345 340 342 343 344 344 334 330 330 319 320 325 327 331 336 343 336 335 34 283 281 297 296 271 236 235 242 238 242 256 268 275 264 245 244 246 254 263 260 257 250 238 243 199 244 283 321 324 315 305 332 1 355 345 292 290 296 306 316 281 266 227 250 286 300 279 274 260 239 232 254 264 257 254 249 251 264 278 282 260
358 354 351 352 351 348 348 348 343 340 342 342 343 340 330 328 319 308 318 324 324 324 324 340 346 347 354 288 302 319 287 258 250 251 255 256 256 271 285 285 277 278 272 243 244 255 257 261 249 166 278 235 222 310 334 337 323 340 359 326 314 241 272 288 281 273 271 270 272 230 246 281 280 276 282 287 276 248 244 258 264 261 252 250 251 255 267 272
357 353 350 350 351 349 346 344 342 340 340 340 340 336 327 321 309 304 314 316 319 315 312 342 2 18 6 282 306 321 270 255 272 271 272 283 288 288 280 275 278 290 300 277 262 259 247 243 196 198 271 288 198 247 3 7 335 353 42 275 271 255 281 299 284 264 253 264 274 249 246 269 265 268 281 296 299 280 263 256 256 260 262 258 252 249 247 253
357 353 348 347 351 350 346 345 341 338 339 341 337 331 327 316 299 292 305 316 317 304 294 309 342 5 285 280 310 311 247 248 286 306 319 300 293 293 284 273 274 285 300 293 283 264 213 203 230 247 316 316 166 93 34 356 313 326 344 274 270 274 283 295 292 290 277 268 271 265 258 259 264 272 279 276 265 273 279 266 247 241 257 267 265 264 252 240
357 353 347 345 347 348 348 347 341 339 340 339 336 334 335 326 301 284 291 311 317 308 303 294 356 32 281 284 299 273 266 299 318 317 307 296 297 298 292 277 272 292 322 309 284 205 165 203 165 3 351 340 26 75 2 292 279 305 325 314 301 290 277 279 280 291 307 310 289 279 274 270 273 277 277 271 246 240 260 270 272 260 269 281 279 277 266 245
358 354 347 343 343 345 348 348 344 340 337 337 343 347 349 348 344 317 301 320 337 327 311 284 114 85 261 266 279 285 306 319 327 320 294 289 308 308 298 292 275 291 349 336 307 164 169 144 31 13 313 308 296 274 270 268 270 296 312 306 298 297 284 278 274 272 297 314 295 272 266 268 274 277 277 283 284 269 269 283 293 288 287 283 270 264 258 247
359 355 347 342 341 344 345 347 344 339 337 337 346 357 3 360 17 18 336 333 223 225 254 255 210 247 272 272 296 306 318 319 327 340 294 273 308 325 316 325 357 12 37 281 289 298 123 97 313 234 238 252 257 285 305 18 308 307 310 297 288 294 288 283 283 282 291 302 277 269 275 277 279 283 282 285 297 302 295 294 293 288 282 277 274 265 250 243
359 356 347 341 340 343 344 345 342 338 336 334 343 5 6 359 42 317 313 300 264 243 243 253 239 242 261 269 290 306 343 336 318 61 34 286 322 356 332 4 30 5 317 287 293 340 59 80 256 233 225 241 264 298 332 6 314 306 291 290 289 282 278 280 282 289 302 303 277 296 313 300 291 292 292 289 290 289 282 274 274 275 271 261 261 265 259 253
360 356 346 339 339 343 342 342 341 340 342 340 347 13 248 312 60 303 315 304 289 263 242 262 261 254 260 260 275 331 57 359 316 325 334 335 33 35 334 22 41 326 295 328 13 7 28 54 257 249 247 287 295 297 309 244 308 304 288 301 297 280 283 285 281 298 316 324 291 314 330 300 285 279 279 276 270 266 264 260 261 268 276 274 259 261 268 273
359 355 347 337 337 343 341 342 347 350 354 348 335 326 321 354 352 326 349 261 291 283 247 254 256 256 268 262 241 41 48 313 283 266 262 324 45 56 61 26 1 315 317 1 81 53 3 263 255 279 325 1 334 318 358 9 355 333 310 316 296 297 318 308 306 316 320 311 281 306 322 298 294 299 293 284 273 273 279 285 293 300 305 305 309 318 309 292
357 355 347 333 335 342 341 344 1 358 354 346 330 343 360 354 334 338 16 174 288 284 250 234 231 222 236 291 285 96 93 210 217 243 239 142 74 39 111 73 347 334 305 280 123 97 275 252 259 352 353 11 3 348 13 18 357 324 297 291 290 308 321 310 314 319 320 309 289 335 348 310 320 340 323 315 322 331 349 8 7 5 6 358 356 357 353 338
356 355 347 334 333 338 340 347 5 358 1 35 12 4 6 344 328 341 41 77 310 285 266 252 255 222 245 293 266 209 123 231 232 222 205 153 136 102 84 106 72 324 285 263 104 56 269 266 352 28 359 15 21 351 11 29 346 314 281 271 287 306 310 309 319 324 338 328 311 7 3 294 313 334 309 313 343 359 13 25 18 8 9 9 7 360 358 358
352 353 348 337 329 335 344 1 348 350 12 57 14 0 352 338 325 339 75 67 341 283 289 219 184 236 267 266 205 121 61 286 249 222 187 158 154 136 69 342 56 286 290 282 18 324 264 319 37 69 22 19 21 340 338 30 6 306 274 282 295 304 305 306 314 319 335 299 290 342 284 270 311 310 298 328 8 16 16 20 14 9 7 5 5 358 356 357
349 349 347 337 330 338 344 322 337 347 20 3 354 341 332 331 324 344 73 47 342 278 280 227 160 190 247 232 119 88 44 284 276 270 211 169 145 65 77 324 359 310 298 28 25 308 243 357 26 56 39 28 19 329 298 350 4 282 285 308 308 302 296 290 292 283 262 287 300 291 193 258 305 292 331 9 26 19 12 13 10 6 0 356 357 357 356 352
345 346 343 335 329 333 329 315 328 343 350 334 333 324 317 314 319 76 85 57 278 282 348 252 261 278 266 318 45 150 233 278 2 285 256 173 147 59 56 279 229 282 309 76 37 301 282 32 32 60 47 30 333 290 291 341 351 275 292 308 300 290 283 276 270 265 269 298 308 312 66 114 278 293 6 22 32 18 6 6 4 359 354 352 350 349 350 345
342 342 340 332 325 316 313 318 317 334 344 335 332 327 313 296 9 64 81 88 247 284 346 269 330 300 302 355 356 301 297 5 92 258 278 136 134 71 101 245 166 204 360 85 74 318 347 106 158 99 62 323 286 284 313 12 311 276 293 307 310 304 285 269 243 236 316 350 274 293 55 82 291 334 5 14 33 15 355 355 355 350 350 349 345 344 343 340
340 339 337 330 321 303 305 310 305 351 348 336 333 331 326 21 53 62 51 80 231 289 292 347 345 321 353 33 0 346 16 358 321 322 22 75 15 21 73 21 80 70 2 57 61 355 325 295 31 83 42 276 288 298 345 26 318 311 336 331 327 329 334 350 186 127 72 342 262 222 92 105 261 13 22 32 41 12 350 350 349 347 348 348 344 341 337 335
339 338 335 327 314 287 293 302 304 339 337 331 330 331 10 30 62 89 82 250 282 315 338 344 326 353 13 36 11 351 1 339 339 3 9 42 24 11 11 20 38 43 5 0 3 355 351 5 19 359 325 346 350 331 343 3 354 9 20 353 349 344 350 13 5 40 73 261 255 26 23 18 183 164 51 53 46 26 8 355 349 345 342 340 337 335 332 330
339 338 333 323 301 266 264 287 317 322 319 324 331 350 78 39 32 94 280 317 318 304 322 301 308 347 356 16 20 355 345 350 355 6 17 67 56 29 46 62 41 25 3 333 338 348 353 13 353 308 357 25 37 2 340 348 5 19 16 16 34 8 353 11 344 354 74 248 270 359 355 342 177 160 72 44 18 16 10 357 350 344 336 332 331 329 326 325
339 338 331 321 296 267 265 291 317 315 314 324 341 45 80 70 43 323 316 333 265 250 275 292 314 338 21 48 17 348 350 9 360 357 15 94 93 52 49 75 91 74 344 261 4 4 340 326 337 6 358 11 74 57 345 332 351 358 355 28 70 46 8 352 313 321 298 273 302 334 342 311 201 152 108 46 356 354 354 353 349 340 331 324 322 322 319 319
339 338 328 308 286 273 275 290 302 305 316 334 24 63 56 75 120 5 7 278 256 273 317 326 327 351 41 63 32 2 10 356 357 358 352 37 63 53 31 14 45 93 136 108 43 54 24 304 309 353 311 302 73 76 312 297 315 314 328 80 104 116 103 259 261 301 301 287 305 322 343 267 287 179 142 104 337 346 346 344 342 334 327 320 316 317 317 317
340 337 326 302 280 272 277 285 276 279 308 355 62 66 60 90 257 355 289 254 277 335 324 338 14 35 23 15 28 31 36 320 353 359 350 34 45 39 60 350 354 90 104 45 342 153 134 255 257 300 27 56 58 26 347 350 326 296 43 73 66 179 161 202 238 232 265 289 295 302 308 286 248 165 141 355 348 346 340 337 339 334 327 324 319 317 319 318
339 339 332 298 283 272 260 250 222 238 272 52 63 55 90 174 218 170 216 236 244 319 331 357 34 50 359 341 351 358 8 25 5 357 346 36 27 1 37 338 327 45 93 90 290 297 20 280 265 51 36 49 66 32 13 14 314 320 33 21 278 226 155 173 281 268 306 321 285 286 298 315 344 197 326 352 347 337 336 334 334 331 324 323 321 318 318 316
339 340 323 291 294 251 227 249 206 208 182 77 75 68 196 198 185 181 208 343 300 331 57 37 22 54 355 347 343 339 355 12 10 1 336 348 352 355 13 315 307 13 76 133 255 245 174 287 287 84 68 35 64 62 35 12 28 97 29 284 289 338 102 114 280 314 349 241 274 294 285 300 359 300 322 343 337 331 334 330 326 326 325 323 320 317 316 313
334 334 310 298 302 186 225 245 197 177 81 66 70 265 240 187 201 197 173 116 356 61 83 116 226 107 118 65 319 320 359 17 359 349 331 348 339 335 35 299 293 324 348 69 44 274 151 294 307 4 118 137 35 58 33 352 28 96 193 296 41 64 344 12 78 324 319 283 281 286 285 285 184 235 304 320 322 329 331 328 327 328 328 325 320 318 316 313
331 342 321 318 80 156 175 174 168 128 59 55 333 278 287 144 242 251 213 151 111 83 85 189 193 65 88 128 201 303 3 30 337 336 354 24 327 272 183 206 289 312 333 67 93 270 76 86 289 304 139 130 28 31 162 301 347 39 22 2 38 128 187 233 145 137 279 293 289 299 319 298 206 213 261 292 322 335 332 329 328 326 325 321 316 316 315 312
353 15 301 159 113 134 144 142 126 66 66 163 201 230 319 116 283 294 291 317 131 129 132 210 183 87 70 107 203 274 344 354 332 343 330 344 316 283 278 215 287 306 335 55 83 279 49 64 274 301 13 93 1 306 194 197 272 18 37 13 351 351 66 29 290 159 149 252 286 298 299 273 241 205 214 304 335 337 331 327 323 319 319 316 312 311 312 312
48 21 285 146 130 154 140 117 65 73 127 210 210 222 308 189 256 322 330 2 47 153 147 171 174 129 124 72 321 254 356 341 337 18 304 333 343 305 292 248 266 306 10 35 18 318 65 38 281 311 336 28 355 354 48 69 83 82 80 146 190 20 61 76 303 278 182 166 229 271 288 280 266 178 179 335 340 331 325 323 317 315 316 313 311 310 307 309
57 16 253 267 182 185 122 83 291 140 130 237 205 199 239 168 119 351 357 26 40 78 83 127 157 117 144 179 214 155 85 330 255 111 244 263 266 267 290 297 287 40 99 53 286 230 145 112 319 295 335 67 68 62 76 89 88 80 62 186 138 90 92 122 222 283 306 244 227 237 285 275 251 135 1 339 332 323 320 319 314 313 314 313 313 312 309 306
63 266 290 347 205 181 89 37 312 12 15 254 236 174 159 147 78 6 9 28 36 44 30 22 97 76 187 195 136 127 118 166 216 240 267 261 258 260 296 333 347 67 88 24 286 274 104 78 322 290 65 101 101 83 107 122 88 72 13 333 86 30 153 179 201 255 303 271 261 340 275 270 301 16 346 334 325 320 319 320 318 314 314 317 315 314 312 309
310 260 305 14 164 169 84 71 272 329 284 290 359 5 3 82 96 49 359 335 327 96 45 333 191 38 264 151 110 153 168 122 292 281 275 260 269 280 328 350 355 36 94 226 214 270 310 350 344 337 322 303 128 333 263 219 83 89 256 276 216 301 323 256 210 312 263 238 55 354 270 278 315 333 334 329 322 320 321 322 320 316 316 319 317 314 311 311
338 259 284 333 158 154 132 181 164 189 261 346 17 347 5 19 6 148 242 271 242 143 123 276 246 240 297 74 70 58 156 134 237 282 288 290 284 294 343 342 337 307 249 259 204 136 161 210 110 53 310 308 296 288 286 237 84 118 227 257 237 282 355 21 202 265 245 272 345 274 261 291 311 321 326 325 323 322 321 323 322 321 321 319 317 315 310 310
31 6 300 325 6 64 341 229 110 107 260 56 38 317 22 19 292 284 188 274 303 116 157 260 291 37 36 60 55 350 293 156 94 319 307 303 285 273 299 318 317 264 289 297 287 102 95 226 192 177 215 248 248 257 238 127 121 161 224 246 241 250 346 98 108 253 265 285 275 235 262 299 310 319 322 322 324 322 320 323 325 324 325 323 320 317 312 310
78 358 345 341 337 3 356 359 46 27 293 123 95 286 265 313 293 308 13 303 309 13 35 313 31 53 37 54 73 350 306 326 359 32 276 281 268 278 302 307 266 255 291 305 91 100 78 314 256 206 217 237 247 261 108 111 126 173 190 224 247 246 130 109 172 233 256 304 290 286 312 311 308 315 319 319 322 322 318 321 323 323 323 320 316 314 311 309
140 291 124 130 239 310 346 326 331 327 284 178 145 250 225 310 327 249 300 318 350 24 46 1 10 50 134 117 116 182 314 351 335 292 270 289 293 315 327 318 262 257 295 339 14 108 119 261 256 221 248 259 181 109 107 111 131 182 181 208 231 207 156 178 235 230 192 215 272 296 314 310 304 311 317 319 322 320 315 314 317 318 316 315 316 316 314 313
85 336 323 48 65 218 239 267 284 310 288 212 170 50 184 255 303 254 276 358 352 339 90 65 314 294 270 96 114 164 240 210 305 287 255 274 293 309 322 309 295 308 17 355 307 109 117 260 247 222 279 291 125 128 131 127 133 178 199 227 225 214 215 223 238 227 194 216 258 286 301 299 299 308 313 317 318 315 311 313 319 321 319 321 322 320 319 318
103 269 301 10 354 271 258 284 305 328 315 241 158 269 162 150 204 263 276 110 309 302 339 142 250 256 295 30 84 211 227 191 195 238 222 235 286 257 219 242 267 311 2 338 282 74 105 262 249 184 313 297 142 139 140 137 137 141 183 261 261 297 295 262 254 246 213 248 274 285 299 300 306 316 316 317 320 321 320 322 324 324 324 326 324 320 318 313
304 256 206 78 331 303 310 312 331 10 340 347 132 205 206 181 199 212 279 217 191 215 242 221 236 261 341 351 323 270 237 197 198 221 210 201 229 220 203 223 238 295 329 310 280 321 134 259 302 49 3 295 169 153 162 169 121 79 39 354 348 349 323 285 280 266 204 266 307 326 331 322 319 321 320 321 326 328 326 326 324 321 324 326 322 318 316 313
357 314 67 99 300 319 352 328 344 34 303 251 179 176 199 234 209 160 348 293 227 205 213 190 196 264 331 305 275 249 226 210 218 229 216 206 223 222 220 240 253 269 272 250 264 277 147 196 317 37 354 301 193 147 159 170 16 353 345 358 344 315 286 296 307 280 214 255 341 345 326 311 312 317 321 326 330 332 328 323 320 319 324 325 320 319 321 319